[[{"header":{"parameterUnit":"m.s-1","parameterCategory":2,"la1":30.2991,"la2":30.254,"lo1":-89.0895,"lo2":-89.0444,"dy":0.0017,"dx":0.0017,"nx":28,"ny":28,"refTime":"2025-05-24T03:00:00:Z","depth":"0","parameterNumber":2,"parameterNumberName":"U-component_of_CURRENTS"},"data":[0,0,0,0,0,0,0,0,0,0,0,0,0,0,0,0,0,0,0,0,0,0,0,0,0,0,0,0,0,0,0,0,0,0,0,0,0,0,0,0,0,0,0,0,0,0,0,0,0,0,0,0,0,0,0,0,0,0,0.3611,0.3613,0,0.3696,0.3697,0.3697,0.3705,0.3705,0.3704,0.3704,0.3709,0.3709,0.3709,0,0,0,0,0,0,0,0,0,0,0,0,0,0.3455,0.3457,0.3611,0.3613,0.3615,0.3696,0.3697,0.3697,0.3705,0.3705,0.3704,0.3704,0.3709,0.3709,0.3709,0,0,0,0,0,0,0,0,0,0,0,0,0,0.3521,0.3458,0.3611,0.3635,0.3639,0.3696,0.3697,0.3697,0.3705,0.3705,0.3704,0.3704,0.3709,0.3709,0.3709,0.3714,0,0,0.371,0.371,0,0,0,0,0,0,0,0,0.3518,0.3526,0.363,0.3634,0.3638,0.3698,0.3644,0.3702,0.3705,0.367,0.3704,0.3704,0.3704,0.3704,0.3709,0.3714,0.3714,0.371,0.371,0.3711,0.3711,0,0,0,0,0,0,0,0.3513,0.3523,0.3636,0.3632,0.3637,0.3643,0.3651,0.3654,0.3678,0.3673,0.3676,0.37,0.3704,0.3709,0.3709,0.3714,0.371,0.371,0.3711,0.3711,0.3795,0.3797,0,0,0,0,0,0,0.3521,0.3518,0.3633,0.3639,0.3586,0.3646,0.3655,0.3671,0.368,0.3684,0.37,0.37,0.3708,0.3709,0.3709,0.3794,0.3711,0.3711,0.3711,0.3793,0.3796,0.3798,0,0,0,0,0,0,0.3517,0.353,0.363,0.3588,0.3602,0.365,0.3668,0.3673,0.3691,0.3703,0.3704,0.3714,0.3708,0.3709,0.3729,0.3791,0.3711,0.3711,0.3791,0.3794,0.3797,0.3912,0,0,0,0,0,0,0.3512,0.3528,0.3537,0.3589,0.3605,0.3668,0.3669,0.3675,0.3709,0.371,0.3715,0.3715,0.3708,0.3728,0.3729,0.379,0.3711,0.3788,0.3792,0.3796,0.3905,0.3918,0.393,0,0,0,0,0,0.3506,0.353,0.3537,0.3551,0.3618,0.367,0.3677,0.3705,0.371,0.3718,0.3729,0.3715,0.3754,0.373,0.373,0.3793,0.3786,0.3791,0.3796,0.39,0.3916,0.3929,0,0,0,0,0,0,0.3484,0.3536,0.3544,0.3586,0.3625,0.3675,0.3689,0.3713,0.3729,0.3727,0.373,0.3731,0.3773,0.3761,0.3734,0.3828,0.3773,0.3778,0.3852,0.3867,0.3879,0.3975,0.3712,0,0,0,0,0,0.3481,0.3504,0.3556,0.3593,0.3603,0.3645,0.3669,0.3693,0.3722,0.3729,0.374,0.3757,0.3792,0.381,0.3816,0.3863,0.3904,0.3906,0.3918,0.3928,0.4007,0.4111,0.4141,0.3813,0.3813,0.3813,0,0,0.3493,0.3521,0.354,0.3588,0.361,0.3675,0.3656,0.3698,0.3772,0.3726,0.3799,0.3788,0.3808,0.3864,0.3884,0.3865,0.4033,0.3934,0.3943,0.4018,0.4119,0.4152,0.4181,0.3816,0.3816,0.3815,0,0,0.354,0.3536,0.3576,0.3606,0.3652,0.3687,0.3705,0.3753,0.3779,0.3825,0.3842,0.3895,0.3888,0.3974,0.4004,0.4093,0.4083,0.4057,0.4215,0.4313,0.4342,0.4369,0.4425,0.4456,0.4077,0.4078,0.4078,0,0.3557,0.3613,0.3598,0.3649,0.3695,0.3703,0.3778,0.3819,0.3877,0.392,0.3852,0.3962,0.3971,0.4139,0.4178,0.4134,0.4154,0.4154,0.4334,0.4361,0.4387,0.4438,0.4471,0.4084,0.4083,0.4082,0.4082,0,0.3642,0.3687,0.3708,0.3782,0.3822,0.3877,0.3936,0.3974,0.3981,0.4034,0.4132,0.4151,0.4237,0.4239,0.424,0.4443,0.4383,0.4324,0.4305,0.4428,0.4472,0.4504,0.4092,0.409,0.4088,0.4087,0,0,0.3683,0.3759,0.3767,0.3817,0.3893,0.394,0.4044,0.4152,0.4239,0.4264,0.4387,0.4482,0.4491,0.4536,0.455,0.4658,0.4839,0.4582,0.4584,0.4655,0.5024,0.4911,0.4933,0.4788,0.4795,0.4801,0.497,0,0.3761,0.3873,0.3898,0.4027,0.4089,0.412,0.4224,0.4317,0.4358,0.4462,0.4534,0.4628,0.4607,0.464,0.4764,0.4817,0.4934,0.4798,0.4885,0.4889,0.4788,0.4973,0.4744,0.487,0.5001,0.5006,0.501,0,0.3834,0.3903,0.403,0.4143,0.4171,0.4257,0.4391,0.4485,0.463,0.4652,0.4777,0.4802,0.5023,0.4923,0.5171,0.5068,0.5097,0.5117,0.5121,0.5022,0.4839,0.4776,0.4923,0.4764,0.5059,0.5055,0.5051,0,0.3858,0.3989,0.409,0.4131,0.427,0.4333,0.441,0.4545,0.4619,0.4794,0.4839,0.5054,0.5129,0.5257,0.532,0.5251,0.5524,0.5413,0.5351,0.5339,0.5178,0.5141,0.5211,0.561,0.5609,0.5609,0.5608,0,0.3921,0.4008,0.4106,0.4166,0.4287,0.4367,0.4494,0.4591,0.4726,0.4828,0.4955,0.5048,0.521,0.5346,0.5408,0.5503,0.5605,0.5465,0.5419,0.5201,0.5165,0.5041,0.4975,0.5615,0.5614,0.5612,0.5611,0,0.3941,0.401,0.4126,0.426,0.4299,0.4382,0.4502,0.4581,0.4721,0.4854,0.491,0.5085,0.5265,0.5412,0.5598,0.5581,0.5534,0.5682,0.54,0.532,0.5072,0.502,0.4976,0.4834,0.5664,0.5663,0.5662,0,0.3967,0.4032,0.4155,0.4196,0.4257,0.4364,0.4421,0.4563,0.4634,0.485,0.4907,0.5113,0.5217,0.5466,0.5513,0.5644,0.5494,0.5465,0.5325,0.5116,0.5025,0.4845,0.4715,0.5137,0.5131,0.5127,0.5124,0,0.4009,0.4042,0.4112,0.4176,0.424,0.4303,0.4397,0.4439,0.46,0.4701,0.4812,0.4913,0.5147,0.5163,0.5338,0.5375,0.5187,0.5377,0.5257,0.4749,0.447,0.4284,0.4939,0.5086,0.509,0.5093,0.5095,0.5096,0.4016,0.4032,0.4074,0.413,0.4185,0.4191,0.4186,0.4268,0.4328,0.4421,0.4616,0.4686,0.4835,0.5031,0.5052,0.4901,0.4919,0.4743,0.4738,0.4606,0.436,0.4928,0.4949,0.4952,0.4954,0.4956,0.4958,0,0.3957,0.3962,0.4014,0.4031,0.4017,0.4085,0.4117,0.4068,0.4046,0.4192,0.4268,0.4337,0.438,0.449,0.4452,0.4288,0.4107,0.4174,0.388,0.3814,0.4411,0.4274,0.4031,0.4031,0.4031,0.4031,0.4032,0.4032,0.3927,0.3906,0.3906,0.3839,0.3843,0.3753,0.3729,0.3687,0.3732,0.3682,0.3684,0.3788,0.4004,0.4089,0.3934,0.3837,0.3549,0.3387,0.3415,0.383,0.3881,0.393,0.3786,0.3445,0.3444,0.2627,0.2621,0.2616]},{"header":{"parameterUnit":"m.s-1","parameterCategory":2,"la1":30.2991,"la2":30.254,"lo1":-89.0895,"lo2":-89.0444,"dy":0.0017,"dx":0.0017,"nx":28,"ny":28,"refTime":"2025-05-24T03:00:00:Z","depth":"0","parameterNumber":3,"parameterNumberName":"V-component_of_CURRENTS"},"data":[0,0,0,0,0,0,0,0,0,0,0,0,0,0,0,0,0,0,0,0,0,0,0,0,0,0,0,0,0,0,0,0,0,0,0,0,0,0,0,0,0,0,0,0,0,0,0,0,0,0,0,0,0,0,0,0,0,0,0.0037,0.0036,0,-0.0056,-0.0058,-0.0059,-0.011,-0.011,-0.011,-0.011,-0.0202,-0.0204,-0.0207,0,0,0,0,0,0,0,0,0,0,0,0,0,0.0092,0.0092,0.0037,0.0036,0.0035,-0.0056,-0.0058,-0.0059,-0.011,-0.011,-0.011,-0.011,-0.0201,-0.0204,-0.0207,0,0,0,0,0,0,0,0,0,0,0,0,0,0.004,0.0091,0.0037,-0.0001,-0.0006,-0.0056,-0.0058,-0.0059,-0.011,-0.011,-0.011,-0.011,-0.02,-0.0204,-0.0207,-0.0226,0,0,-0.0218,-0.022,0,0,0,0,0,0,0,0,0.0043,0.0038,0.0005,0.0001,-0.0004,-0.0071,-0.0072,-0.0115,-0.011,-0.0071,-0.011,-0.0111,-0.0158,-0.0165,-0.0183,-0.0231,-0.0235,-0.0218,-0.022,-0.0222,-0.0223,0,0,0,0,0,0,0,0.0047,0.0041,-0.0001,0.0004,-0.0001,-0.0041,-0.0048,-0.0081,-0.0113,-0.0074,-0.0078,-0.0088,-0.016,-0.0179,-0.0185,-0.0236,-0.0218,-0.0221,-0.0224,-0.0225,-0.0278,-0.0277,0,0,0,0,0,0,0.0064,0.0045,0.0002,-0.0003,0.002,-0.0042,-0.0049,-0.005,-0.0113,-0.0122,-0.0087,-0.009,-0.0173,-0.0181,-0.0189,-0.0149,-0.0222,-0.0225,-0.0227,-0.0279,-0.0278,-0.0277,0,0,0,0,0,0,0.0065,0.0061,0.0006,0.0018,0.0009,-0.0042,-0.0042,-0.0052,-0.0068,-0.0122,-0.0132,-0.0094,-0.0174,-0.0184,-0.0208,-0.0156,-0.0227,-0.023,-0.0279,-0.0278,-0.0277,-0.0113,0,0,0,0,0,0,0.0068,0.0063,0.0065,0.002,0.0009,-0.0,-0.0043,-0.0053,-0.0073,-0.0077,-0.0131,-0.014,-0.0174,-0.0202,-0.0212,-0.0162,-0.0233,-0.028,-0.0279,-0.0278,-0.0119,-0.0107,-0.0096,0,0,0,0,0,0.007,0.009,0.0066,0.0061,0.0016,0.0001,-0.0008,-0.0046,-0.0073,-0.0065,-0.011,-0.0138,-0.02,-0.0205,-0.0216,-0.0166,-0.0281,-0.0279,-0.0278,-0.0125,-0.0109,-0.0096,0,0,0,0,0,0,0.012,0.0084,0.0059,0.0066,0.0042,-0.0007,-0.0006,-0.004,-0.0072,-0.0076,-0.0135,-0.0146,-0.0144,-0.0192,-0.0195,-0.0182,-0.0243,-0.0244,-0.0123,-0.0109,-0.0097,-0.0008,-0.0236,0,0,0,0,0,0.013,0.013,0.0092,0.0096,0.009,0.0039,0.0024,0.0,-0.0034,-0.0049,-0.009,-0.0131,-0.0148,-0.0158,-0.0189,-0.0186,-0.0202,-0.0164,-0.0152,-0.0141,-0.0078,-0.0074,-0.0054,-0.0272,-0.0272,-0.0272,0,0,0.0148,0.0128,0.0126,0.0105,0.008,0.0105,0.0031,0.0025,0.0049,-0.0054,-0.0039,-0.0092,-0.0142,-0.013,-0.0133,-0.0159,-0.0096,-0.0139,-0.0129,-0.0071,-0.007,-0.0048,-0.0029,-0.0271,-0.0271,-0.0271,0,0,0.0202,0.0171,0.0198,0.0192,0.0168,0.0147,0.0151,0.011,0.0097,0.0088,0.0036,0.0026,-0.0036,-0.0028,-0.004,0.0017,-0.0036,-0.0019,0.0126,0.0128,0.0147,0.0165,0.015,0.0164,-0.0008,-0.0007,-0.0007,0,0.0231,0.0261,0.0204,0.024,0.0256,0.0179,0.0235,0.0213,0.0168,0.0183,0.0115,0.0093,0.0034,0.0105,0.0119,0.0056,0.003,0.008,0.015,0.0167,0.0182,0.0162,0.0176,0.0001,-0.0,-0.0001,-0.0002,0,0.0317,0.0343,0.0364,0.0389,0.0395,0.0428,0.0401,0.0404,0.0362,0.0344,0.0374,0.0299,0.0304,0.0268,0.0208,0.0297,0.0234,0.0164,0.0129,0.0215,0.0186,0.0198,0.0012,0.0009,0.0007,0.0005,0,0,0.04,0.0424,0.0437,0.048,0.0485,0.0508,0.0554,0.0592,0.065,0.0589,0.0672,0.0625,0.0586,0.0572,0.0502,0.0501,0.0551,0.0387,0.0383,0.0403,0.0545,0.0471,0.0475,0.0483,0.0487,0.0489,0.0476,0,0.0499,0.0603,0.0589,0.07,0.0756,0.0725,0.0786,0.0802,0.079,0.0841,0.0793,0.0825,0.0701,0.0709,0.0698,0.0593,0.0594,0.0561,0.0436,0.0434,0.0382,0.0492,0.0434,0.0416,0.0487,0.0489,0.049,0,0.0606,0.0664,0.0791,0.0873,0.0899,0.0958,0.1059,0.1099,0.1141,0.1132,0.1162,0.1101,0.113,0.0981,0.0913,0.089,0.0756,0.0655,0.065,0.0551,0.0385,0.0342,0.0434,0.0205,0.0508,0.0507,0.0505,0,0.0709,0.081,0.0923,0.0953,0.1032,0.1099,0.1148,0.1202,0.1274,0.1336,0.1394,0.1379,0.1381,0.1255,0.1038,0.0978,0.0931,0.0809,0.0628,0.0618,0.0538,0.0517,0.0432,0.0779,0.0779,0.0779,0.0779,0,0.0828,0.0921,0.0986,0.1053,0.1212,0.1218,0.138,0.1421,0.1514,0.164,0.1567,0.1659,0.1444,0.1368,0.1153,0.0952,0.1021,0.0713,0.0639,0.0585,0.0569,0.0337,0.0212,0.0779,0.0779,0.0779,0.0779,0,0.0927,0.0966,0.1104,0.1215,0.1263,0.1379,0.1526,0.1635,0.1704,0.1874,0.1909,0.1886,0.1792,0.1563,0.1342,0.1102,0.0769,0.0805,0.075,0.0671,0.0271,0.0157,0.0033,-0.0052,0.0626,0.0625,0.0624,0,0.0998,0.1076,0.1223,0.1315,0.1378,0.1531,0.1639,0.1732,0.1856,0.2021,0.2124,0.2086,0.208,0.1744,0.1326,0.098,0.0751,0.0661,0.0544,0.0303,0.0121,0.0034,-0.0033,0.0482,0.048,0.0478,0.0476,0,0.1135,0.1174,0.1272,0.1447,0.1583,0.1738,0.1902,0.2035,0.2161,0.2297,0.245,0.2464,0.2147,0.1765,0.1265,0.0993,0.0493,0.0609,0.0386,0.006,-0.0061,-0.0198,0.0416,0.0459,0.0461,0.0462,0.0463,0.0464,0.1236,0.1316,0.1421,0.1586,0.1738,0.1923,0.2057,0.2229,0.2432,0.2645,0.2659,0.2693,0.2126,0.1444,0.108,0.0318,0.0366,0.0059,-0.0042,-0.0093,-0.021,0.0372,0.0305,0.0306,0.0307,0.0307,0.0308,0,0.1332,0.1401,0.1555,0.1735,0.1885,0.1952,0.2207,0.2343,0.2568,0.2751,0.2863,0.2556,0.1897,0.1225,0.0218,-0.026,-0.042,-0.0511,-0.0649,-0.0673,-0.0138,-0.0183,-0.039,-0.039,-0.039,-0.0389,-0.0389,-0.0389,0.1395,0.1511,0.1565,0.1807,0.1933,0.214,0.2279,0.2497,0.2666,0.2835,0.2807,0.2755,0.2148,0.0505,-0.0592,-0.0826,-0.1125,-0.1219,-0.1309,-0.0984,-0.0939,-0.0896,-0.0967,-0.1335,-0.1336,-0.181,-0.1815,-0.1819]}],[{"header":{"parameterUnit":"m.s-1","parameterCategory":2,"la1":30.2991,"la2":30.254,"lo1":-89.0895,"lo2":-89.0444,"dy":0.0017,"dx":0.0017,"nx":28,"ny":28,"refTime":"2025-05-24T03:00:00:Z","depth":"2","parameterNumber":2,"parameterNumberName":"U-component_of_CURRENTS"},"data":[0,0,0,0,0,0,0,0,0,0,0,0,0,0,0,0,0,0,0,0,0,0,0,0,0,0,0,0,0,0,0,0,0,0,0,0,0,0,0,0,0,0,0,0,0,0,0,0,0,0,0,0,0,0,0,0,0,0,0.2855,0.2856,0,0.2894,0.2894,0.2894,0.2934,0.2935,0.2936,0.2937,0.2899,0.2897,0.2895,0,0,0,0,0,0,0,0,0,0,0,0,0,0.278,0.2781,0.2855,0.2856,0.2857,0.2894,0.2894,0.2894,0.2934,0.2935,0.2936,0.2937,0.2899,0.2897,0.2895,0,0,0,0,0,0,0,0,0,0,0,0,0,0.2811,0.2782,0.2855,0.2884,0.2888,0.2894,0.2894,0.2894,0.2934,0.2935,0.2936,0.2938,0.29,0.2897,0.2895,0.2848,0,0,0.2886,0.2885,0,0,0,0,0,0,0,0,0.2809,0.2813,0.2879,0.2883,0.2886,0.2914,0.2854,0.2876,0.2933,0.2912,0.2937,0.2939,0.2899,0.2896,0.2895,0.2847,0.2845,0.2886,0.2884,0.2883,0.2882,0,0,0,0,0,0,0,0.2807,0.2812,0.2866,0.288,0.2885,0.2884,0.289,0.2858,0.2892,0.2914,0.2918,0.2928,0.29,0.2898,0.2894,0.2844,0.2886,0.2883,0.2881,0.288,0.2974,0.2978,0,0,0,0,0,0,0.2812,0.281,0.2865,0.2868,0.2855,0.2884,0.2891,0.29,0.2894,0.2896,0.2927,0.293,0.2902,0.2898,0.2893,0.2994,0.2883,0.288,0.2878,0.297,0.2975,0.298,0,0,0,0,0,0,0.281,0.2816,0.2863,0.2843,0.285,0.2885,0.2895,0.29,0.2907,0.2906,0.2906,0.293,0.2903,0.2897,0.2908,0.2987,0.2879,0.2876,0.2965,0.2972,0.2977,0.3095,0,0,0,0,0,0,0.2807,0.2815,0.2821,0.2843,0.2851,0.2892,0.2894,0.29,0.2913,0.2917,0.2907,0.2906,0.2903,0.2913,0.2906,0.2981,0.2874,0.296,0.2968,0.2975,0.3086,0.3105,0.3121,0,0,0,0,0,0.2804,0.2836,0.2821,0.2828,0.286,0.2893,0.2897,0.2923,0.2912,0.2929,0.2935,0.2906,0.2961,0.2912,0.2903,0.298,0.2956,0.2966,0.2975,0.3078,0.3101,0.3121,0,0,0,0,0,0,0.2816,0.2843,0.2828,0.2866,0.2879,0.2902,0.2931,0.2918,0.2931,0.2937,0.2918,0.2918,0.2971,0.2953,0.29,0.304,0.2969,0.2977,0.3051,0.3072,0.3089,0.31,0.2872,0,0,0,0,0,0.2813,0.2847,0.2853,0.2886,0.2895,0.2897,0.291,0.2919,0.2935,0.2942,0.2955,0.2975,0.3,0.3014,0.3031,0.3067,0.3064,0.3129,0.3146,0.316,0.317,0.3295,0.3324,0.3011,0.3011,0.301,0,0,0.2842,0.2849,0.2876,0.289,0.2905,0.2939,0.291,0.2944,0.2982,0.2931,0.3008,0.3016,0.302,0.3097,0.3122,0.3091,0.3235,0.3172,0.3184,0.3186,0.3308,0.3338,0.3365,0.3017,0.3016,0.3015,0,0,0.2896,0.2904,0.2936,0.2951,0.2965,0.2978,0.2983,0.3013,0.304,0.3073,0.3088,0.3132,0.3157,0.3209,0.3221,0.3331,0.3316,0.3368,0.3466,0.3589,0.3615,0.3638,0.3606,0.3626,0.3387,0.3388,0.3388,0,0.2915,0.2944,0.2953,0.2977,0.3005,0.2996,0.3033,0.3062,0.3102,0.3137,0.3118,0.3222,0.321,0.3318,0.3385,0.3367,0.3404,0.3377,0.361,0.3634,0.3656,0.3618,0.3638,0.3394,0.3394,0.3393,0.3392,0,0.2957,0.3002,0.3033,0.3062,0.3096,0.3133,0.3168,0.3212,0.3226,0.326,0.3359,0.3371,0.3436,0.3467,0.3449,0.3629,0.3586,0.3607,0.3549,0.3694,0.3644,0.3663,0.3404,0.3402,0.34,0.3398,0,0,0.2971,0.304,0.3059,0.3088,0.3138,0.3172,0.3254,0.332,0.3371,0.3438,0.3522,0.3598,0.3621,0.3641,0.3662,0.3773,0.3916,0.3781,0.3785,0.3731,0.4118,0.3996,0.4002,0.4024,0.403,0.4034,0.3994,0,0.2996,0.3049,0.3091,0.319,0.3228,0.3271,0.3346,0.3415,0.3464,0.3556,0.361,0.3699,0.3688,0.3734,0.3849,0.3895,0.3988,0.3919,0.4,0.3999,0.3864,0.403,0.3752,0.3691,0.4012,0.4015,0.4017,0,0.3011,0.3053,0.3119,0.324,0.3261,0.332,0.3425,0.3503,0.3624,0.3663,0.3775,0.3818,0.3952,0.394,0.41,0.4078,0.4122,0.4152,0.4153,0.4018,0.3918,0.3616,0.3712,0.4048,0.4045,0.4043,0.4041,0,0.298,0.3093,0.3138,0.3172,0.3288,0.334,0.3421,0.3535,0.3599,0.3765,0.3822,0.3967,0.4071,0.416,0.4204,0.4193,0.4367,0.4334,0.4248,0.4231,0.3993,0.3948,0.4501,0.4501,0.4501,0.4501,0.4501,0,0.2969,0.3031,0.3126,0.3156,0.3226,0.3341,0.3425,0.3523,0.3657,0.3734,0.39,0.3974,0.4174,0.4271,0.426,0.4291,0.4407,0.4284,0.4263,0.4016,0.3977,0.4296,0.4273,0.4499,0.45,0.45,0.45,0,0.2915,0.2973,0.3043,0.3166,0.3203,0.3262,0.34,0.3441,0.3629,0.3734,0.3804,0.405,0.4178,0.4279,0.4425,0.4378,0.4384,0.4382,0.4002,0.394,0.4121,0.4105,0.4232,0.4229,0.4226,0.4223,0.4221,0,0.2923,0.2896,0.3013,0.3013,0.306,0.3154,0.3179,0.3381,0.3461,0.3722,0.3775,0.4009,0.4089,0.4229,0.4239,0.4202,0.4334,0.394,0.3882,0.4152,0.4118,0.4106,0.4095,0.3557,0.355,0.3544,0.3539,0,0.2848,0.2833,0.2845,0.288,0.2903,0.2947,0.3063,0.3109,0.3344,0.3462,0.3632,0.3725,0.3941,0.3864,0.3934,0.386,0.3905,0.3814,0.428,0.3684,0.352,0.3484,0.3495,0.3485,0.3491,0.3495,0.3498,0.35,0.2733,0.2726,0.2712,0.2702,0.2735,0.2763,0.2757,0.2893,0.2998,0.318,0.3346,0.3427,0.3562,0.3519,0.3409,0.3374,0.3617,0.3473,0.3491,0.3515,0.3461,0.3304,0.3208,0.3212,0.3215,0.3218,0.322,0,0.2576,0.2585,0.2553,0.2571,0.2527,0.2636,0.2682,0.263,0.2705,0.2905,0.3028,0.282,0.2834,0.2957,0.2832,0.2832,0.2799,0.272,0.2666,0.2723,0.2773,0.268,0.222,0.2216,0.2213,0.2209,0,0,0.2487,0.2434,0.2424,0.2347,0.2384,0.2328,0.2317,0.2287,0.2381,0.2382,0.2474,0.2715,0.2878,0.2498,0.2468,0.2332,0.2499,0.2244,0.3058,0.3054,0.3099,0.3233,0.3158,0,0,0,0,0]},{"header":{"parameterUnit":"m.s-1","parameterCategory":2,"la1":30.2991,"la2":30.254,"lo1":-89.0895,"lo2":-89.0444,"dy":0.0017,"dx":0.0017,"nx":28,"ny":28,"refTime":"2025-05-24T03:00:00:Z","depth":"2","parameterNumber":3,"parameterNumberName":"V-component_of_CURRENTS"},"data":[0,0,0,0,0,0,0,0,0,0,0,0,0,0,0,0,0,0,0,0,0,0,0,0,0,0,0,0,0,0,0,0,0,0,0,0,0,0,0,0,0,0,0,0,0,0,0,0,0,0,0,0,0,0,0,0,0,0,-0.0005,-0.0006,0,-0.0082,-0.0083,-0.0084,-0.0162,-0.0163,-0.0164,-0.0165,-0.0301,-0.0304,-0.0307,0,0,0,0,0,0,0,0,0,0,0,0,0,0.0004,0.0004,-0.0005,-0.0006,-0.0007,-0.0081,-0.0083,-0.0084,-0.0162,-0.0163,-0.0164,-0.0165,-0.03,-0.0304,-0.0307,0,0,0,0,0,0,0,0,0,0,0,0,0,-0.0031,0.0004,-0.0005,-0.0053,-0.0058,-0.0081,-0.0083,-0.0084,-0.0162,-0.0163,-0.0164,-0.0165,-0.0299,-0.0303,-0.0307,-0.0307,0,0,-0.032,-0.0322,0,0,0,0,0,0,0,0,-0.0029,-0.0031,-0.0045,-0.005,-0.0055,-0.0112,-0.013,-0.0161,-0.0161,-0.0125,-0.0165,-0.0166,-0.0241,-0.025,-0.0264,-0.0314,-0.0319,-0.0321,-0.0323,-0.0325,-0.0326,0,0,0,0,0,0,0,-0.0026,-0.0029,-0.0038,-0.0046,-0.0052,-0.0094,-0.01,-0.0136,-0.0177,-0.0128,-0.0133,-0.0138,-0.0245,-0.0259,-0.0268,-0.0321,-0.0321,-0.0324,-0.0327,-0.0329,-0.0402,-0.0402,0,0,0,0,0,0,-0.0007,-0.0026,-0.0035,-0.004,-0.0043,-0.0093,-0.01,-0.0094,-0.0176,-0.0188,-0.0137,-0.0141,-0.0251,-0.0263,-0.0273,-0.0283,-0.0325,-0.0329,-0.0331,-0.0403,-0.0402,-0.0401,0,0,0,0,0,0,-0.0006,-0.0007,-0.0032,-0.0034,-0.004,-0.0091,-0.0084,-0.0095,-0.0112,-0.0181,-0.0196,-0.0143,-0.0253,-0.0267,-0.0306,-0.0289,-0.0331,-0.0335,-0.0403,-0.0403,-0.0402,-0.03,0,0,0,0,0,0,-0.0006,-0.0006,0.0001,-0.0032,-0.0039,-0.0043,-0.0083,-0.0095,-0.0111,-0.0118,-0.0191,-0.0205,-0.0255,-0.0299,-0.031,-0.0296,-0.0338,-0.0404,-0.0403,-0.0402,-0.0304,-0.0296,-0.0289,0,0,0,0,0,-0.0005,0.0011,0.0003,0.0001,-0.0026,-0.0042,-0.0049,-0.0093,-0.011,-0.0113,-0.0163,-0.0203,-0.03,-0.0302,-0.0315,-0.0301,-0.0405,-0.0403,-0.0402,-0.0308,-0.0298,-0.0289,0,0,0,0,0,0,0.0016,0.0004,-0.0006,0.0005,-0.0014,-0.0054,-0.006,-0.0082,-0.0122,-0.013,-0.0197,-0.0214,-0.0242,-0.0284,-0.0285,-0.032,-0.0358,-0.0359,-0.0282,-0.0273,-0.0265,-0.0243,-0.0342,0,0,0,0,0,0.0028,0.0035,0.0017,0.0023,0.0021,-0.0015,-0.0027,-0.0051,-0.0087,-0.0106,-0.0156,-0.0207,-0.0245,-0.0269,-0.0313,-0.0329,-0.0363,-0.0329,-0.0321,-0.0314,-0.0305,-0.0316,-0.0308,-0.0397,-0.0397,-0.0397,0,0,0.0036,0.0031,0.0033,0.0027,0.001,0.0016,-0.0026,-0.0035,-0.0034,-0.0114,-0.0133,-0.0183,-0.0244,-0.0266,-0.0282,-0.03,-0.0313,-0.0313,-0.0306,-0.03,-0.0314,-0.0305,-0.0297,-0.0396,-0.0396,-0.0397,0,0,0.0058,0.0056,0.0072,0.0068,0.0056,0.0037,0.0042,0.0011,-0.0007,-0.0027,-0.0082,-0.0121,-0.018,-0.022,-0.0246,-0.0221,-0.0271,-0.0232,-0.0174,-0.0184,-0.0177,-0.017,-0.0224,-0.0223,-0.0227,-0.0227,-0.0227,0,0.007,0.0093,0.0071,0.009,0.0096,0.0056,0.008,0.006,0.0016,0.0015,-0.0023,-0.0099,-0.0158,-0.0174,-0.0171,-0.0203,-0.0225,-0.0201,-0.0172,-0.0166,-0.0161,-0.0218,-0.0218,-0.0222,-0.0222,-0.0223,-0.0223,0,0.0105,0.0129,0.014,0.0154,0.0153,0.0168,0.0149,0.014,0.0114,0.0095,0.007,-0.001,-0.0051,-0.0077,-0.012,-0.011,-0.0145,-0.0158,-0.0189,-0.0146,-0.0209,-0.0211,-0.0215,-0.0216,-0.0218,-0.0219,0,0,0.0136,0.0162,0.017,0.0199,0.0197,0.0207,0.0212,0.0217,0.0236,0.018,0.0194,0.0116,0.008,0.0047,-0.0012,-0.0031,-0.0035,-0.0069,-0.0072,-0.0112,-0.0078,-0.0123,-0.0131,-0.0028,-0.0027,-0.0027,-0.0144,0,0.0179,0.0235,0.0231,0.0289,0.0323,0.0302,0.0312,0.0307,0.0292,0.0292,0.0221,0.021,0.0128,0.0117,0.0083,-0.0011,-0.0031,-0.0004,-0.0124,-0.0129,-0.0163,-0.0131,-0.0092,-0.0193,-0.0146,-0.0146,-0.0147,0,0.0225,0.0262,0.0324,0.0376,0.0389,0.0407,0.0438,0.0447,0.0433,0.0423,0.0397,0.0348,0.0286,0.023,0.0095,0.0121,0.0042,-0.0033,-0.0039,-0.0113,-0.0175,-0.0226,-0.0199,-0.0151,-0.0151,-0.015,-0.015,0,0.0272,0.0335,0.039,0.0409,0.0446,0.0469,0.0486,0.0488,0.0511,0.0522,0.0551,0.0457,0.0449,0.0309,0.0141,0.0132,-0.0002,-0.0039,-0.0158,-0.0165,-0.0174,-0.0182,-0.009,-0.009,-0.0089,-0.0089,-0.0089,0,0.0328,0.0377,0.042,0.0458,0.0522,0.053,0.059,0.0601,0.0619,0.0666,0.0633,0.0659,0.0488,0.0386,0.0187,-0.0005,0.003,-0.0144,-0.0183,-0.0142,-0.0145,-0.0139,-0.0143,-0.0094,-0.0093,-0.0092,-0.0091,0,0.0362,0.0389,0.0455,0.0516,0.0546,0.0584,0.0651,0.0691,0.0731,0.0793,0.0811,0.0821,0.0695,0.0479,0.0268,0.0098,-0.012,-0.0178,-0.0143,-0.0176,-0.0296,-0.0294,-0.0348,-0.035,-0.0352,-0.0354,-0.0355,0,0.0377,0.0413,0.0501,0.0531,0.0559,0.0627,0.0673,0.0728,0.079,0.0883,0.0929,0.0892,0.0867,0.0532,0.022,-0.0129,-0.014,-0.0278,-0.0288,-0.0282,-0.0316,-0.0311,-0.0306,-0.028,-0.028,-0.0281,-0.0281,0,0.0399,0.0422,0.0469,0.0554,0.061,0.0701,0.0793,0.0863,0.094,0.1034,0.1143,0.1139,0.0874,0.0594,0.0177,-0.0062,-0.0242,-0.03,-0.0275,-0.0216,-0.0226,-0.0257,-0.0252,-0.0286,-0.0285,-0.0285,-0.0285,-0.0285,0.0388,0.0414,0.0484,0.0565,0.0635,0.0781,0.0891,0.1019,0.1164,0.133,0.1277,0.1314,0.0987,0.0483,0.0094,-0.0278,-0.0276,-0.0391,-0.0386,-0.0381,-0.0347,-0.0359,-0.0441,-0.0442,-0.0442,-0.0442,-0.0443,0,0.0392,0.0438,0.05,0.0612,0.0722,0.078,0.0975,0.1097,0.132,0.1446,0.153,0.1223,0.0924,0.0539,-0.0007,-0.0354,-0.0367,-0.046,-0.0385,-0.0379,-0.0374,-0.0337,-0.043,-0.0431,-0.0432,-0.0432,0,0,0.0375,0.0453,0.0508,0.0689,0.0778,0.0971,0.1107,0.13,0.1446,0.1587,0.1633,0.1558,0.1081,0.0687,0.0205,-0.0092,-0.0153,-0.0161,-0.0137,0.0014,0.0024,-0.0307,-0.024,0,0,0,0,0]}],[{"header":{"parameterUnit":"m.s-1","parameterCategory":2,"la1":30.2991,"la2":30.254,"lo1":-89.0895,"lo2":-89.0444,"dy":0.0017,"dx":0.0017,"nx":28,"ny":28,"refTime":"2025-05-24T03:00:00:Z","depth":"4","parameterNumber":2,"parameterNumberName":"U-component_of_CURRENTS"},"data":[0,0,0,0,0,0,0,0,0,0,0,0,0,0,0,0,0,0,0,0,0,0,0,0,0,0,0,0,0,0,0,0,0,0,0,0,0,0,0,0,0,0,0,0,0,0,0,0,0,0,0,0,0,0,0,0,0,0,0.1479,0.148,0,0.1512,0.1512,0.1513,0.1538,0.1538,0.1539,0.1539,0.1624,0.1626,0.1627,0,0,0,0,0,0,0,0,0,0,0,0,0,0.1426,0.1427,0.1479,0.148,0.148,0.1512,0.1512,0.1513,0.1538,0.1538,0.1539,0.1539,0.1623,0.1625,0.1628,0,0,0,0,0,0,0,0,0,0,0,0,0,0.1451,0.1427,0.1479,0.1499,0.1501,0.1512,0.1512,0.1513,0.1538,0.1538,0.1539,0.154,0.1622,0.1625,0.1628,0.1631,0,0,0.1636,0.1637,0,0,0,0,0,0,0,0,0.1449,0.1452,0.1495,0.1497,0.15,0.1524,0.1525,0.1556,0.1537,0.1521,0.1539,0.154,0.1596,0.1601,0.1601,0.1635,0.1638,0.1636,0.1638,0.1639,0.164,0,0,0,0,0,0,0,0.1447,0.1451,0.149,0.1496,0.1499,0.1502,0.1506,0.153,0.1553,0.1522,0.1525,0.1532,0.1598,0.1599,0.1604,0.1639,0.1636,0.1639,0.164,0.1641,0.1805,0.1808,0,0,0,0,0,0,0.1448,0.1449,0.1489,0.1491,0.1479,0.1503,0.1507,0.1513,0.1552,0.1559,0.1532,0.1534,0.1594,0.1601,0.1607,0.1731,0.1639,0.1642,0.1643,0.1802,0.1806,0.1809,0,0,0,0,0,0,0.1447,0.1451,0.1487,0.1473,0.1478,0.1503,0.151,0.1514,0.1547,0.1559,0.1567,0.1565,0.1595,0.1603,0.1668,0.173,0.1643,0.1645,0.1799,0.1803,0.1807,0.1904,0,0,0,0,0,0,0.1445,0.1451,0.1471,0.1473,0.1479,0.152,0.151,0.1514,0.155,0.1553,0.159,0.1596,0.1596,0.1664,0.167,0.1733,0.1648,0.1796,0.1801,0.1806,0.1898,0.1911,0.1923,0,0,0,0,0,0.1443,0.1467,0.1472,0.1478,0.1501,0.1522,0.1526,0.1543,0.1551,0.1574,0.1606,0.1597,0.1701,0.1668,0.1675,0.174,0.1793,0.18,0.1805,0.1892,0.1908,0.1922,0,0,0,0,0,0,0.1446,0.1472,0.1477,0.1506,0.1525,0.1528,0.1558,0.1563,0.1603,0.162,0.1625,0.1635,0.1714,0.1713,0.1677,0.1803,0.1748,0.1756,0.1812,0.1827,0.184,0.1851,0.165,0,0,0,0,0,0.1457,0.1492,0.1502,0.153,0.1544,0.1556,0.1573,0.1585,0.1612,0.163,0.1658,0.1697,0.1739,0.1772,0.1801,0.1869,0.1867,0.1917,0.193,0.1941,0.1956,0.1998,0.2016,0.1829,0.1829,0.1828,0,0,0.1459,0.1487,0.1501,0.1535,0.1554,0.1585,0.1569,0.1609,0.1652,0.1635,0.1718,0.174,0.1765,0.1842,0.1879,0.1855,0.1996,0.1948,0.1957,0.1967,0.2007,0.2025,0.2041,0.1833,0.1832,0.1831,0,0,0.1486,0.1514,0.155,0.1577,0.1621,0.1631,0.1651,0.1679,0.1715,0.1782,0.179,0.1852,0.1911,0.1948,0.197,0.2071,0.2055,0.2088,0.217,0.2211,0.2226,0.224,0.2267,0.2283,0.2101,0.2101,0.2101,0,0.1502,0.1535,0.1563,0.1607,0.1638,0.1658,0.1697,0.1735,0.1786,0.1829,0.1828,0.1939,0.1963,0.2057,0.2103,0.2101,0.2114,0.2108,0.2227,0.224,0.2252,0.2277,0.2292,0.2106,0.2106,0.2105,0.2104,0,0.1536,0.1581,0.1609,0.1674,0.1713,0.1753,0.1802,0.1859,0.1903,0.1938,0.2045,0.2079,0.2146,0.2172,0.2175,0.2286,0.2264,0.2229,0.2184,0.2277,0.2297,0.2311,0.2114,0.2112,0.211,0.2109,0,0,0.1537,0.1617,0.1634,0.1665,0.1753,0.1776,0.1878,0.1955,0.2017,0.2093,0.2176,0.2273,0.2294,0.2322,0.2337,0.2387,0.2492,0.2363,0.2362,0.2383,0.2585,0.2423,0.2423,0.248,0.2483,0.2485,0.2566,0,0.1562,0.1633,0.1683,0.1757,0.1789,0.1861,0.1941,0.2026,0.2103,0.2192,0.2265,0.2348,0.2351,0.2394,0.2452,0.2473,0.2535,0.2473,0.2498,0.2499,0.2338,0.2435,0.2494,0.2577,0.258,0.2582,0.2584,0,0.1579,0.1625,0.1693,0.1783,0.1808,0.1869,0.1995,0.2073,0.2212,0.2278,0.2386,0.2432,0.2548,0.2518,0.2629,0.2591,0.2616,0.2624,0.2626,0.2451,0.2364,0.2465,0.2609,0.2607,0.2605,0.2603,0.2602,0,0.1532,0.1635,0.1685,0.1717,0.1823,0.189,0.1967,0.2106,0.2175,0.2347,0.2411,0.2536,0.2602,0.266,0.2708,0.2682,0.2798,0.2748,0.263,0.2618,0.2693,0.2677,0.2838,0.2838,0.2838,0.2837,0.2837,0,0.1516,0.1556,0.1668,0.1688,0.1754,0.1866,0.1959,0.2065,0.2213,0.2296,0.2453,0.2525,0.2645,0.272,0.2746,0.2732,0.2834,0.2666,0.2636,0.2733,0.2721,0.2703,0.2686,0.284,0.284,0.2839,0.2839,0,0.1426,0.1508,0.1558,0.1682,0.1726,0.1775,0.1921,0.1985,0.2161,0.2278,0.2341,0.2535,0.2639,0.2728,0.282,0.2757,0.2769,0.2744,0.286,0.2832,0.2553,0.2541,0.2608,0.2603,0.2599,0.2595,0.2592,0,0.1352,0.1381,0.1516,0.1548,0.1605,0.1695,0.1756,0.1934,0.201,0.2259,0.2302,0.2479,0.2586,0.2594,0.2699,0.2737,0.2712,0.2702,0.262,0.257,0.2535,0.2529,0.2522,0.2586,0.2585,0.2584,0.2583,0,0.1208,0.1295,0.1341,0.142,0.149,0.1546,0.1664,0.1701,0.192,0.2082,0.2215,0.2304,0.2417,0.2494,0.255,0.2571,0.2691,0.2658,0.2665,0.2588,0.2544,0.2512,0.251,0.2568,0.257,0.2572,0.2573,0,0.11,0.1106,0.1207,0.1267,0.1348,0.1402,0.1473,0.1582,0.1679,0.1971,0.2002,0.2216,0.2383,0.2411,0.246,0.247,0.243,0.2348,0.2371,0.2388,0.228,0.2188,0.2098,0,0,0,0,0,0.0992,0.1009,0.1044,0.1118,0.1203,0.1266,0.1414,0.1503,0.1711,0.1751,0.1878,0.1986,0.2099,0.2207,0.2173,0.2352,0.2425,0.2302,0.2339,0.2489,0.2506,0.2398,0,0,0,0,0,0,0.0918,0.0956,0.0993,0.0992,0.1024,0.1104,0.1204,0.1348,0.1388,0.1612,0.1682,0.1852,0.1982,0.2084,0.2127,0.2157,0.2139,0.2428,0.2423,0.248,0.2495,0.2508,0.2403,0,0,0,0,0]},{"header":{"parameterUnit":"m.s-1","parameterCategory":2,"la1":30.2991,"la2":30.254,"lo1":-89.0895,"lo2":-89.0444,"dy":0.0017,"dx":0.0017,"nx":28,"ny":28,"refTime":"2025-05-24T03:00:00:Z","depth":"4","parameterNumber":3,"parameterNumberName":"V-component_of_CURRENTS"},"data":[0,0,0,0,0,0,0,0,0,0,0,0,0,0,0,0,0,0,0,0,0,0,0,0,0,0,0,0,0,0,0,0,0,0,0,0,0,0,0,0,0,0,0,0,0,0,0,0,0,0,0,0,0,0,0,0,0,0,0.0113,0.0112,0,0.0078,0.0078,0.0077,0.0043,0.0043,0.0043,0.0043,-0.0033,-0.0035,-0.0037,0,0,0,0,0,0,0,0,0,0,0,0,0,0.0091,0.0092,0.0113,0.0112,0.0112,0.0079,0.0078,0.0077,0.0043,0.0043,0.0043,0.0043,-0.0033,-0.0035,-0.0037,0,0,0,0,0,0,0,0,0,0,0,0,0,0.0081,0.0092,0.0113,0.0093,0.0091,0.0079,0.0078,0.0077,0.0044,0.0043,0.0043,0.0042,-0.0032,-0.0035,-0.0037,-0.0046,0,0,-0.0045,-0.0047,0,0,0,0,0,0,0,0,0.0082,0.0082,0.0096,0.0094,0.0092,0.0067,0.0043,0.0034,0.0044,0.0059,0.0043,0.0042,-0.0002,-0.0007,-0.0015,-0.005,-0.0053,-0.0046,-0.0047,-0.0048,-0.0049,0,0,0,0,0,0,0,0.0083,0.0083,0.0097,0.0096,0.0093,0.0066,0.0065,0.0041,0.0029,0.0058,0.0056,0.0056,-0.0004,-0.0013,-0.0017,-0.0054,-0.0046,-0.0048,-0.005,-0.0051,-0.0129,-0.0129,0,0,0,0,0,0,0.0095,0.0084,0.0098,0.0096,0.0088,0.0067,0.0065,0.0073,0.003,0.0024,0.0056,0.0054,-0.0008,-0.0014,-0.002,-0.0052,-0.0048,-0.0051,-0.0052,-0.0129,-0.0129,-0.013,0,0,0,0,0,0,0.0095,0.0097,0.0099,0.009,0.0089,0.0069,0.0078,0.0073,0.0065,0.0029,0.0022,0.0053,-0.0008,-0.0016,-0.0045,-0.0054,-0.0052,-0.0055,-0.0128,-0.0129,-0.0129,-0.0103,0,0,0,0,0,0,0.0094,0.0097,0.0103,0.0092,0.009,0.0092,0.0078,0.0073,0.0067,0.0064,0.0024,0.0017,-0.0009,-0.0041,-0.0048,-0.0058,-0.0057,-0.0127,-0.0128,-0.0129,-0.0104,-0.0103,-0.0103,0,0,0,0,0,0.0094,0.0104,0.0104,0.0105,0.0101,0.0092,0.0089,0.0071,0.0067,0.0062,0.0035,0.0018,-0.0052,-0.0044,-0.0052,-0.0062,-0.0127,-0.0128,-0.0129,-0.0104,-0.0103,-0.0103,0,0,0,0,0,0,0.0096,0.0101,0.0101,0.0112,0.0104,0.0087,0.0083,0.0076,0.0052,0.0048,0.0015,0.0005,-0.0025,-0.0046,-0.0036,-0.0089,-0.0093,-0.0096,-0.0072,-0.0071,-0.0071,-0.0058,-0.0059,0,0,0,0,0,0.0102,0.0109,0.0108,0.0114,0.0114,0.0101,0.0095,0.0086,0.0067,0.0056,0.003,-0.0003,-0.0036,-0.0054,-0.0084,-0.0109,-0.0135,-0.0123,-0.0122,-0.0121,-0.0117,-0.0177,-0.0181,-0.0133,-0.0133,-0.0133,0,0,0.0106,0.0107,0.0113,0.0115,0.0108,0.0106,0.0096,0.0091,0.0084,0.0051,0.003,-0.0001,-0.0042,-0.0074,-0.0089,-0.0092,-0.0147,-0.0123,-0.0122,-0.0118,-0.0178,-0.0183,-0.0187,-0.0134,-0.0134,-0.0134,0,0,0.0109,0.012,0.0124,0.0123,0.0118,0.011,0.0113,0.01,0.0088,0.0067,0.0038,0.0005,-0.0039,-0.0073,-0.0096,-0.011,-0.0141,-0.012,-0.0109,-0.0167,-0.0171,-0.0176,-0.0202,-0.0209,-0.0121,-0.0121,-0.0121,0,0.0109,0.0125,0.0121,0.0123,0.013,0.0115,0.0123,0.0106,0.0083,0.0076,0.0062,-0.0006,-0.0041,-0.0083,-0.0092,-0.0109,-0.0136,-0.0106,-0.0166,-0.0171,-0.0176,-0.0202,-0.021,-0.012,-0.012,-0.012,-0.012,0,0.0116,0.013,0.0133,0.0136,0.0135,0.0143,0.013,0.012,0.0107,0.0091,0.0053,0.0001,-0.0036,-0.0059,-0.0082,-0.013,-0.0136,-0.0157,-0.0165,-0.0179,-0.0206,-0.0214,-0.0118,-0.0119,-0.0119,-0.0119,0,0,0.0119,0.0137,0.0139,0.0157,0.0152,0.016,0.0144,0.0137,0.0138,0.0094,0.0083,0.0013,-0.0006,-0.0033,-0.0071,-0.0126,-0.0182,-0.0152,-0.0156,-0.0172,-0.0291,-0.0276,-0.0284,-0.0218,-0.022,-0.0221,-0.029,0,0.0129,0.0153,0.0152,0.0178,0.0198,0.0188,0.0182,0.0168,0.0149,0.0131,0.0069,0.0043,0.0001,-0.0014,-0.0078,-0.0157,-0.0206,-0.016,-0.028,-0.0282,-0.0264,-0.0295,-0.0227,-0.0297,-0.0299,-0.0301,-0.0302,0,0.0138,0.016,0.0192,0.0226,0.0233,0.0237,0.0247,0.024,0.0202,0.0186,0.0141,0.01,0.0024,-0.0012,-0.0157,-0.0126,-0.0201,-0.0267,-0.0272,-0.0273,-0.0285,-0.0285,-0.0318,-0.0316,-0.0315,-0.0314,-0.0313,0,0.016,0.0191,0.0227,0.0239,0.0262,0.0271,0.0277,0.0257,0.0266,0.0224,0.0224,0.0126,0.0086,-0.0038,-0.0166,-0.0166,-0.0327,-0.0343,-0.0398,-0.0396,-0.0398,-0.0393,-0.0446,-0.0446,-0.0445,-0.0445,-0.0445,0,0.0182,0.0211,0.0245,0.0269,0.0315,0.0311,0.0345,0.0332,0.0321,0.0342,0.0262,0.0249,0.0074,-0.0031,-0.0157,-0.0301,-0.0321,-0.0398,-0.0422,-0.0383,-0.0376,-0.0403,-0.0397,-0.0448,-0.0447,-0.0447,-0.0446,0,0.0196,0.0218,0.0268,0.031,0.0329,0.036,0.0402,0.0427,0.0406,0.0427,0.0419,0.0328,0.0194,0.0023,-0.0177,-0.0272,-0.0421,-0.0465,-0.0391,-0.0408,-0.0449,-0.0441,-0.0529,-0.0529,-0.053,-0.053,-0.053,0,0.0208,0.0235,0.0304,0.0347,0.037,0.042,0.0461,0.0466,0.05,0.0484,0.0501,0.0384,0.0307,0.0049,-0.0149,-0.0391,-0.0424,-0.0492,-0.0492,-0.0448,-0.0463,-0.0454,-0.0446,-0.053,-0.053,-0.053,-0.053,0,0.0236,0.0256,0.0301,0.0389,0.0449,0.0518,0.0576,0.0607,0.0621,0.0605,0.0581,0.0448,0.0297,0.0077,-0.0118,-0.0293,-0.045,-0.0495,-0.0496,-0.0496,-0.0451,-0.0463,-0.0455,-0.0531,-0.0531,-0.0531,-0.0531,0,0.0257,0.0291,0.0356,0.0433,0.0514,0.0596,0.0621,0.0668,0.0693,0.0677,0.0667,0.0498,0.039,0.0129,-0.005,-0.0228,-0.027,-0.0317,-0.0328,-0.0329,-0.0261,-0.0173,-0.0192,0,0,0,0,0,0.0276,0.0324,0.04,0.0489,0.0569,0.0618,0.0698,0.0716,0.0734,0.0736,0.0704,0.057,0.0309,0.019,0.0017,-0.0073,-0.0317,-0.0281,-0.038,-0.0535,-0.0535,-0.0489,0,0,0,0,0,0,0.0295,0.0362,0.0403,0.0525,0.0589,0.0684,0.0736,0.0749,0.0751,0.0739,0.0604,0.0533,0.0273,0.0406,0.0015,-0.0042,-0.0125,-0.041,-0.0414,-0.0536,-0.0535,-0.0534,-0.0487,0,0,0,0,0]}]]